Tracking 30107 objects as of 18-Jan-2025
HD Live streaming from Space Station
objects crossing your sky now

COSMOS 1285 DEB

Track COSMOS 1285 DEB now!


NORAD ID: 27801
Int'l Code: 1981-071Q
Perigee: 1,240.1 km
Apogee: 39,603.7 km
Inclination: 64.1 °
Period: 727.4 minutes
Semi major axis: 26792 km
RCS: 0.1262 m2 (medium)
Launch date: August 4, 1981
Source: Commonwealth of Independent States (former USSR) (CIS)
Launch site: PLESETSK MISSILE AND SPACE COMPLEX (PKMTR)

Note: This is SATELLITE DEBRIS
Your satellite tracking list
Your tracking list is empty




NASA's NSSDC Master Catalog

Two Line Element Set (TLE):
1 27801U 81071Q   25017.25481473  .00000547  00000-0  00000-0 0  9990
2 27801  64.1179 102.9550 7159275  39.1350 355.1999  1.97958147173358
Source of the keplerian elements: AFSPC